Hourly Data Report for July 02, 2017

PITT MEADOWS CS
BRITISH COLUMBIA

49°12'29.964" N
122°41'24.076" W
5.00 m
1106178
71775
WMM

Download Data

Hourly Data (July 2017)
Hourly Data Report for July 2, 2017
TIME
LST
Temp Definition
°C
Dew Point Definition
°C
Rel Hum Definition
%
Precip. Amount Definition
mm

Wind Dir Definition
10's deg

Wind Spd Definition
km/h
Visibility Definition
km
Stn Press Definition
kPa
Hmdx Definition


Wind Chill Definition


Weather Definition


00:00 14.7 10.9 78 0.0 9 5   101.69     LegendNANA
01:00 14.4 10.5 77 0.0 13 3   101.69     LegendNANA
02:00 13.8 10.6 81 0.0   0   101.69     LegendNANA
03:00 13.1 10.6 85 0.0   0   101.69     LegendNANA
04:00 12.3 10.2 87 0.0   0   101.73     LegendNANA
05:00 13.3 10.9 86 0.0 11 2   101.75     LegendNANA
06:00 15.5 11.2 75 0.0 11 3   101.76     LegendNANA
07:00 16.8 11.5 71 0.0 13 3   101.75     LegendNANA
08:00 17.8 11.2 65 0.0 22 4   101.76     LegendNANA
09:00 19.8 11.6 59 0.0 17 4   101.77     LegendNANA
10:00 21.3 11.3 53 0.0 18 6   101.77     LegendNANA
11:00 21.8 12.2 55 0.0 14 8   101.74     LegendNANA
12:00 23.3 12.5 51 0.0 16 7   101.70 26   LegendNANA
13:00 23.7 11.8 47 0.0 21 5   101.68 26   LegendNANA
14:00 24.9 13.1 48 0.0 18 9   101.63 28   LegendNANA
15:00 24.8 13.5 49 0.0 23 9   101.62 28   LegendNANA
16:00 25.3 13.9 49 0.0 22 8   101.60 29   LegendNANA
17:00 25.1 12.8 46 0.0 23 8   101.57 28   LegendNANA
18:00 24.6 13.2 49 0.0 23 7   101.55 28   LegendNANA
19:00 23.7 13.1 52 0.0 15 5   101.53 27   LegendNANA
20:00 21.6 13.0 58 0.0 14 5   101.54     LegendNANA
21:00 19.4 12.3 64 0.0 14 7   101.60     LegendNANA
22:00 18.3 11.8 66 0.0 15 6   101.64     LegendNANA
23:00 16.8 11.7 72 0.0 12 8   101.69     LegendNANA

Notes on Data Quality.

Legend

  • E = Estimated
  • M = Missing
  • NA = Not Available*
  • [empty] = Indicates an unobserved value
Date modified: